Tracking 28052 objects as of 25-Sep-2023
HD Live streaming from Space Station
objects crossing your sky now

STARLINK-5596

Track STARLINK-5596 now!
10-day predictions
STARLINK-5596 is classified as:


NORAD ID: 55476
Int'l Code: 2023-015AD
Perigee: 229.4 km
Apogee: 245.8 km
Inclination: 43.0 °
Period: 89.1 minutes
Semi major axis: 6608 km
RCS: Unknown
Launch date: February 2, 2023
Source: United States (US)
Launch site: AIR FORCE EASTERN TEST RANGE (AFETR)
Your satellite tracking list
Your tracking list is empty




NASA's NSSDC Master Catalog

Two Line Element Set (TLE):
1 55476U 23015AD  23268.32621975  .01280852  11998-2  86480-3 0  9999
2 55476  42.9877  39.8742 0012405 334.7189 115.5439 16.15976941 37250
Source of the keplerian elements: AFSPC